Warrenton, OR

12:51 AM PDT on August 28, 2016 (GMT -0700)
Astoria Regional

Weather History for KAST - October, 2012

Change the Weather History Date:

Friday, October 12, 2012

  Actual Average Record
Temperature  
Mean Temperature 53 °F 53 °F  
Max Temperature 55 °F 62 °F 79 °F (1939)
Min Temperature 50 °F 45 °F 34 °F (1981)
Degree Days  
Heating Degree Days 12 12  
Month to date heating degree days 139 127  
Since 1 July heating degree days 646 608  
Cooling Degree Days 0 0  
Month to date cooling degree days 0 0  
Year to date cooling degree days 25 12  
Growing Degree Days 2 (Base 50)    
Moisture  
Dew Point 50 °F    
Average Humidity 90    
Maximum Humidity 96    
Minimum Humidity 83    
Precipitation  
Precipitation 0.93 in 0.17 in 1.45 in (1926)
Month to date precipitation 0.95 1.64  
Year to date precipitation 50.66 41.88  
Snow  
Snow 0.00 in - - ()
Month to date snowfall 0.0  
Snow Depth 0.00 in    
Sea Level Pressure  
Sea Level Pressure 29.93 in    
Wind  
Wind Speed 4 mph (SE)    
Max Wind Speed 17 mph    
Max Gust Speed 26 mph    
Visibility 10 miles    
Events Rain    
T = Trace of Precipitation, MM = Missing Value Source: NWS Daily Summary

Daily Weather History Graph

Daily Weather History Graph

Search for Another Location

Airport or City:

Trip Planner

Search our weather history database for the weather conditions in past years. The results will help you decide how hot, cold, wet, or windy it might be!

Date:

Astronomy

Oct. 12, 2012 Rise Set
Actual Time 7:29 AM PDT 6:33 PM PDT
Civil Twilight 6:59 AM PDT 7:03 PM PDT
Nautical Twilight 6:24 AM PDT 7:38 PM PDT
Astronomical Twilight 5:49 AM PDT 8:13 PM PDT
Moon 4:09 AM PDT (10/12) 4:53 PM PDT (10/12)
Length of Visible Light 12h 04m
Length of Day
11h 04m
Waning Crescent, 10% of the Moon is Illuminated
Oct 12
Waning Crescent
Oct 15
New
Oct 21
First Quarter
Oct 29
Full
Nov 6
Last Quarter

Hourly Weather History & Observations

Time (PDT) Temp. Dew Point Humidity Pressure Visibility Wind Dir Wind Speed Gust Speed Precip Events Conditions
12:55 AM 50.0 °F 46.9 °F 89% 29.86 in 10.0 mi South 6.9 mph - N/A   Overcast
1:55 AM 51.1 °F 46.9 °F 86% 29.86 in 10.0 mi SSE 4.6 mph - N/A   Overcast
2:55 AM 51.1 °F 46.9 °F 86% 29.86 in 10.0 mi SSE 4.6 mph - N/A   Overcast
3:55 AM 51.1 °F 46.9 °F 86% 29.86 in 10.0 mi Calm Calm - N/A   Overcast
4:55 AM 51.1 °F 46.9 °F 86% 29.86 in 10.0 mi Calm Calm - 0.01 in Rain Light Rain
5:55 AM 51.1 °F 48.0 °F 89% 29.87 in 10.0 mi Calm Calm - 0.03 in Rain Light Rain
6:55 AM 50.0 °F 48.9 °F 96% 29.88 in 10.0 mi Calm Calm - 0.04 in Rain Light Rain
7:07 AM 50.0 °F 48.2 °F 94% 29.88 in 10.0 mi Calm Calm - 0.01 in Rain Light Rain
7:33 AM 50.0 °F 48.2 °F 94% 29.89 in 10.0 mi Calm Calm - 0.06 in Rain Light Rain
7:55 AM 50.0 °F 48.9 °F 96% 29.89 in 10.0 mi ESE 3.5 mph - 0.08 in Rain Light Rain
8:09 AM 50.0 °F 50.0 °F 100% 29.89 in 10.0 mi ESE 3.5 mph - 0.03 in Rain Light Rain
8:43 AM 50.0 °F 50.0 °F 100% 29.90 in 10.0 mi East 3.5 mph - 0.10 in Rain Light Rain
8:55 AM 51.1 °F 50.0 °F 96% 29.90 in 10.0 mi East 3.5 mph - 0.11 in Rain Light Rain
9:04 AM 51.8 °F 50.0 °F 94% 29.90 in 10.0 mi East 3.5 mph - 0.00 in Rain Light Rain
9:16 AM 51.8 °F 50.0 °F 94% 29.90 in 10.0 mi East 3.5 mph - 0.02 in Rain Light Rain
9:46 AM 51.8 °F 50.0 °F 94% 29.91 in 10.0 mi East 4.6 mph - 0.04 in Rain Light Rain
9:55 AM 51.8 °F 50.0 °F 94% 29.91 in 10.0 mi Calm Calm - N/A   Overcast
10:02 AM 51.8 °F 51.8 °F 100% 29.91 in 10.0 mi East 3.5 mph - 0.00 in Rain Light Rain
10:29 AM 51.8 °F 51.8 °F 100% 29.92 in 10.0 mi East 4.6 mph - 0.02 in Rain Light Rain
10:55 AM 52.0 °F 51.1 °F 97% 29.92 in 10.0 mi East 8.1 mph - 0.05 in Rain Light Rain
11:05 AM 51.8 °F 51.8 °F 100% 29.92 in 10.0 mi East 3.5 mph - 0.02 in Rain Rain
11:55 AM 53.1 °F 52.0 °F 96% 29.93 in 10.0 mi ENE 3.5 mph - 0.19 in Rain Rain
12:23 PM 53.6 °F 51.8 °F 94% 29.94 in 10.0 mi East 4.6 mph - 0.11 in Rain Heavy Rain
12:33 PM 53.6 °F 51.8 °F 94% 29.94 in 10.0 mi East 4.6 mph - 0.17 in Rain Heavy Rain
12:47 PM 53.6 °F 51.8 °F 94% 29.94 in 10.0 mi Variable 6.9 mph - 0.22 in Rain Heavy Rain
12:55 PM 53.1 °F 52.0 °F 96% 29.94 in 10.0 mi East 5.8 mph - 0.24 in Rain Light Rain
1:12 PM 53.6 °F 53.6 °F 100% 29.94 in 10.0 mi East 5.8 mph - 0.00 in   Overcast
1:45 PM 55.4 °F 53.6 °F 94% 29.93 in 10.0 mi Variable 4.6 mph - 0.00 in   Overcast
1:55 PM 55.0 °F 52.0 °F 89% 29.93 in 10.0 mi Variable 4.6 mph - 0.00 in   Overcast
2:55 PM 53.6 °F 51.8 °F 94% 29.93 in 10.0 mi South 10.4 mph - N/A Rain Light Rain
3:11 PM 53.6 °F 51.8 °F 94% 29.93 in 10.0 mi South 12.7 mph 17.3 mph 0.01 in Rain Light Rain
3:55 PM 53.1 °F 51.1 °F 93% 29.94 in 10.0 mi South 10.4 mph 19.6 mph 0.03 in   Overcast
4:21 PM 53.6 °F 51.8 °F 94% 29.93 in 10.0 mi South 11.5 mph 23.0 mph N/A   Overcast
4:55 PM 53.1 °F 50.0 °F 89% 29.95 in 10.0 mi South 9.2 mph 17.3 mph N/A   Overcast
5:55 PM 53.1 °F 50.0 °F 89% 29.95 in 10.0 mi South 10.4 mph 21.9 mph 0.00 in Rain Light Rain
6:55 PM 53.6 °F 50.0 °F 88% 29.95 in 10.0 mi South 12.7 mph 23.0 mph N/A   Overcast
7:55 PM 53.1 °F 50.0 °F 89% 29.97 in 10.0 mi South 13.8 mph 26.5 mph N/A   Overcast
8:55 PM 54.0 °F 51.1 °F 90% 29.98 in 10.0 mi South 9.2 mph - N/A   Overcast
9:55 PM 54.0 °F 51.1 °F 90% 30.00 in 10.0 mi South 16.1 mph 23.0 mph 0.00 in Rain Light Rain
10:20 PM 53.6 °F 51.8 °F 94% 30.02 in 10.0 mi SSW 12.7 mph 23.0 mph 0.00 in Rain Light Rain
10:48 PM 53.6 °F 51.8 °F 94% 30.01 in 10.0 mi South 13.8 mph 23.0 mph N/A Rain Light Rain
10:55 PM 53.1 °F 52.0 °F 96% 30.01 in 10.0 mi South 11.5 mph 21.9 mph 0.02 in   Overcast
11:05 PM 53.6 °F 51.8 °F 94% 30.01 in 10.0 mi South 13.8 mph 21.9 mph N/A   Overcast
11:37 PM 53.6 °F 51.8 °F 94% 30.02 in 10.0 mi South 12.7 mph 17.3 mph N/A   Overcast
11:55 PM 54.0 °F 52.0 °F 93% 30.03 in 10.0 mi SSW 9.2 mph - N/A   Overcast